Find GPS III SV07

NORAD ID: 62339 Int'l Des: 2024-242 Owner: SFSSC Country: US Constellation: GPS operational
MEOCIRCULARGNSS

实时位置

正在加载3D地球...

关于 GPS III SV07

正在加载描述...

即将过境

Passes for default location (London). Set your location on the main map for personalized predictions.

高度历史

Loading altitude history...

两行轨道根数

1 62339U 24242A 26136.17689848 -.00000064 00000-0 00000-0 0 9997
2 62339 54.8632 335.4791 0017144 3.2214 171.9079 2.00570749 10610
Epoch: May 16, 2026 • Age: 11 hours

当前状态

高度 20219.0 km
速度 3.87 km/s
星下点 26.81°N, 31.45°E
发射日期 Dec 17, 2024
运行时间 1.4 years
类型 navigation

技术详情

分类 Payload
质量 4352.00 kg
干质量 2160.00 kg
总质量 4352.00 kg
长度 3.40 m
直径 1.80 m
跨度 14.00 m
形状 Box + 2 pan
制造商 LMSSD
平台类型 A2100
阶段状态 In Orbit
所有者/国家 SFSSC/US

Most Searched